TimeMST,TemperatureF,Dew PointF,Humidity,Sea Level PressureIn,VisibilityMPH,Wind Direction,Wind SpeedMPH,Gust SpeedMPH,PrecipitationIn,Events,Conditions,WindDirDegrees,DateUTC
12:53 AM,37.0,24.1,59,30.27,10.0,WNW,17.3,-,N/A,,Scattered Clouds,290,2013-03-02 07:53:00
1:53 AM,35.6,24.8,65,30.27,10.0,NW,11.5,-,N/A,,Clear,320,2013-03-02 08:53:00
2:53 AM,35.1,23.0,61,30.24,10.0,NW,12.7,-,N/A,,Clear,320,2013-03-02 09:53:00
3:53 AM,36.0,21.9,57,30.25,10.0,NW,16.1,20.7,N/A,,Clear,310,2013-03-02 10:53:00
4:53 AM,35.6,21.2,56,30.26,10.0,NW,10.4,19.6,N/A,,Clear,320,2013-03-02 11:53:00
5:53 AM,35.1,21.9,59,30.27,10.0,NW,16.1,21.9,N/A,,Clear,310,2013-03-02 12:53:00
6:53 AM,35.1,21.0,57,30.26,10.0,WNW,19.6,29.9,N/A,,Clear,290,2013-03-02 13:53:00
7:53 AM,37.9,21.9,53,30.25,10.0,WNW,17.3,27.6,N/A,,Clear,300,2013-03-02 14:53:00
8:53 AM,42.1,21.0,43,30.25,10.0,WNW,21.9,29.9,N/A,,Clear,290,2013-03-02 15:53:00
9:53 AM,46.0,21.0,37,30.22,10.0,WNW,28.8,40.3,N/A,,Clear,290,2013-03-02 16:53:00
10:53 AM,48.0,21.9,36,30.21,10.0,West,21.9,31.1,N/A,,Clear,280,2013-03-02 17:53:00
11:53 AM,50.0,21.0,32,30.18,10.0,WNW,17.3,21.9,N/A,,Clear,290,2013-03-02 18:53:00
12:53 PM,51.1,21.0,31,30.14,10.0,NW,16.1,27.6,N/A,,Clear,320,2013-03-02 19:53:00
1:53 PM,51.1,21.0,31,30.12,10.0,NW,20.7,33.4,N/A,,Clear,310,2013-03-02 20:53:00
2:53 PM,52.0,19.9,28,30.11,10.0,NNW,19.6,27.6,N/A,,Clear,330,2013-03-02 21:53:00
3:53 PM,51.1,21.9,32,30.10,10.0,North,13.8,24.2,N/A,,Clear,350,2013-03-02 22:53:00
4:53 PM,46.9,24.1,41,30.13,10.0,North,10.4,18.4,N/A,,Clear,350,2013-03-02 23:53:00
5:53 PM,44.6,23.0,43,30.16,10.0,NNW,8.1,-,N/A,,Clear,340,2013-03-03 00:53:00
6:53 PM,43.0,23.0,45,30.14,10.0,WNW,4.6,-,N/A,,Clear,300,2013-03-03 01:53:00
7:53 PM,43.0,21.9,43,30.09,10.0,West,10.4,19.6,N/A,,Clear,270,2013-03-03 02:53:00
8:53 PM,44.1,19.9,38,30.05,10.0,SW,12.7,25.3,N/A,,Clear,220,2013-03-03 03:53:00
9:53 PM,42.1,19.9,41,30.03,10.0,West,9.2,-,N/A,,Clear,260,2013-03-03 04:53:00
10:53 PM,39.9,21.0,47,29.99,10.0,WSW,9.2,-,N/A,,Clear,250,2013-03-03 05:53:00
11:53 PM,39.9,21.0,47,29.94,10.0,SSW,8.1,-,N/A,,Clear,200,2013-03-03 06:53:00